This is the latest recevied weather packets stored in our database for station/object DL4JCP-6. If no packets are shown the sender has not sent any weather packets the latest 10 day(s).
| Time | Temp. | Humidity | Pressure | Rain* | Wind** | Luminosity | Snow |
|---|---|---|---|---|---|---|---|
| 1777634222 | 18.33° C | 52% | 1030.2 hPa | 0 mm | - | - | - |
| 1777633922 | 18.33° C | 49% | 1030.3 hPa | 0 mm | - | - | - |
| 1777633621 | 18.33° C | 49% | 1030.3 hPa | 0 mm | - | - | - |
| 1777633398 | 17.78° C | 52% | 1030.3 hPa | 0 mm | - | - | - |
| 1777633321 | 17.78° C | 52% | 1030.3 hPa | 0 mm | - | - | - |
| 1777633021 | 17.78° C | 48% | 1030.4 hPa | 0 mm | - | - | - |
| 1777632721 | 17.22° C | 48% | 1030.3 hPa | 0 mm | - | - | - |
| 1777632498 | 17.22° C | 49% | 1030.3 hPa | 0 mm | - | - | - |
| 1777632421 | 17.22° C | 49% | 1030.3 hPa | 0 mm | - | - | - |
| 1777632131 | 17.22° C | 49% | 1030.4 hPa | 0 mm | - | - | - |
| 1777631822 | 17.22° C | 50% | 1030.4 hPa | 0 mm | - | - | - |
| 1777631598 | 17.22° C | 50% | 1030.5 hPa | 0 mm | - | - | - |
| 1777631522 | 17.22° C | 50% | 1030.5 hPa | 0 mm | - | - | - |
| 1777631222 | 17.22° C | 49% | 1030.5 hPa | 0 mm | - | - | - |
| 1777630922 | 17.22° C | 50% | 1030.6 hPa | 0 mm | - | - | - |
| 1777630695 | 17.22° C | 50% | 1030.6 hPa | 0 mm | - | - | - |
| 1777630622 | 17.22° C | 50% | 1030.6 hPa | 0 mm | - | - | - |
| 1777630322 | 16.67° C | 51% | 1030.7 hPa | 0 mm | - | - | - |
| 1777630021 | 17.22° C | 49% | 1030.9 hPa | 0 mm | - | - | - |
| 1777629795 | 16.67° C | 50% | 1030.6 hPa | 0 mm | - | - | - |
| 1777629722 | 16.67° C | 50% | 1030.6 hPa | 0 mm | - | - | - |
| 1777629421 | 16.67° C | 51% | 1030.7 hPa | 0 mm | - | - | - |
| 1777629122 | 16.67° C | 51% | 1030.7 hPa | 0 mm | - | - | - |
| 1777628895 | 16.67° C | 49% | 1030.7 hPa | 0 mm | - | - | - |
| 1777628821 | 16.67° C | 49% | 1030.7 hPa | 0 mm | - | - | - |
* Rain latest hour (hover to see other rain measurements)
** Current wind speed in m/s (hover to see current wind gust speed)